This demonstration page uses our WeatherBlox Daily Observations layout. Learn more.

Left ArrowRight Arrow

41.86663, -103.66717

Hourly Observations for April 11, 2018

Temp ( °F °C ) Dew Point ( °F °C ) Humidity (%) Winds ( mph kmh ) Pressure ( in mb ) Visibility ( mi km ) Precip ( " mm )
12:53 am 00:53 Clear 48 8.9 31 -0.6 52 52 N 9 15 29.80 1009 10 16 N/A
1:53 am 01:53 Clear 46 7.8 32 undefined 58 58 N N/A 29.78 1008 10 16 N/A
2:53 am 02:53 Clear 42 5.6 32 undefined 68 68 ESE 5 7 29.77 1008 10 16 N/A
3:53 am 03:53 Clear 44 6.7 32 undefined 63 63 E 5 7 29.75 1008 10 16 N/A
4:53 am 04:53 Mostly Cloudy 44 6.7 35 1.7 71 71 undefined N/A 29.74 1007 10 16 N/A
5:53 am 05:53 Cloudy 46 7.8 35 1.7 66 66 NE 6 9 29.73 1007 10 16 N/A
6:53 am 06:53 Sunny 45 7.2 36 2.2 71 71 S 3 6 29.74 1007 10 16 N/A
7:53 am 07:53 Sunny 46 7.8 36 2.2 68 68 E 6 9 29.72 1007 10 16 N/A
8:53 am 08:53 Sunny 49 9.4 36 2.2 61 61 ENE 6 9 29.71 1006 10 16 N/A
9:53 am 09:53 Sunny 55 12.8 36 2.2 49 49 SE 6 9 29.69 1006 10 16 N/A
10:53 am 10:53 Sunny 65 18.3 37 2.8 36 36 SE 5 7 29.66 1004 10 16 N/A
11:53 am 11:53 Partly Cloudy 76 24.4 30 -1.1 18 18 WNW 33 54 29.64 1004 7 11 N/A
12:53 pm 12:53 Sunny 78 25.6 32 undefined 19 19 W 28 44 29.61 1003 10 16 N/A
1:53 pm 13:53 Mostly Sunny 77 25 29 -1.7 17 17 W 33 54 29.60 1002 10 16 N/A
2:53 pm 14:53 Sunny 78 25.6 25 -3.9 14 14 WNW 25 41 29.60 1002 10 16 N/A
3:53 pm 15:53 Sunny 78 25.6 24 -4.4 13 13 WNW 26 43 29.59 1002 10 16 N/A
4:53 pm 16:53 Sunny 75 23.9 24 -4.4 15 15 WNW 25 41 29.60 1002 10 16 N/A
5:53 pm 17:53 Sunny 75 23.9 24 -4.4 15 15 WNW 20 31 29.58 1002 10 16 N/A
6:53 pm 18:53 Sunny 67 19.4 36 2.2 32 32 NE 15 24 29.62 1003 10 16 N/A
7:00 pm 19:00 Sunny 66 18.9 37 2.8 34 34 NNE 16 26 29.53 1000 10 16 N/A
7:53 pm 19:53 Clear 59 15 37 2.8 44 44 NNE 10 17 29.66 1004 10 16 N/A
8:53 pm 20:53 Clear 54 12.2 37 2.8 53 53 NNE 10 17 29.69 1005 10 16 N/A
9:53 pm 21:53 Clear 52 11.1 39 3.9 61 61 NE 9 15 29.70 1006 10 16 N/A
10:53 pm 22:53 Clear 49 9.4 39 3.9 69 69 N N/A 29.69 1005 10 16 N/A
11:53 pm 23:53 Clear 45 7.2 37 2.8 74 74 ENE 6 9 29.69 1006 10 16 N/A

Powered by AerisWeather